CW4517 Weather Reports


time (UTC)temp
C
wind
direction
speed
KPH
gust
KPH
rain 1hr
cm
rain 24hr
cm
rain mn
cm
humidity
%
barometer
mb
20260510090419 7 36 4.8 11.3 0.00 0.00 0.00 64 1011.4
20260510085919 7 55 4.8 11.3 0.00 0.00 0.00 64 1011.4
20260510085418 7 350 3.2 8.0 0.00 0.00 0.00 65 1011.4
20260510084919 7 19 3.2 11.3 0.00 0.00 0.00 65 1011.3
20260510084418 7 44 4.8 11.3 0.00 0.00 0.00 65 1011.3
20260510083918 8 53 4.8 11.3 0.00 0.00 0.00 65 1011.3
20260510083421 8 26 3.2 11.3 0.00 0.00 0.00 66 1011.0
20260510082921 8 49 3.2 9.7 0.00 0.00 0.00 67 1011.0
20260510082415 8 32 3.2 8.0 0.00 0.00 0.00 67 1011.0
20260510082124 7 5 3.2 8.0 0.00 0.00 0.00 68 1010.9
20260510081352 7 5 3.2 8.0 0.00 0.00 0.00 69 1010.9
20260510081105 7 43 3.2 6.4 0.00 0.00 0.00 70 1010.9
20260510080336 7 52 1.6 8.0 0.00 0.00 0.00 71 1010.8
20260510075830 7 57 3.2 8.0 0.00 0.00 0.00 72 1010.8
20260510075320 7 42 4.8 12.9 0.00 0.00 0.00 73 1010.8
20260510074817 7 59 3.2 12.9 0.00 0.00 0.00 74 1010.3
20260510074311 7 9 3.2 8.0 0.00 0.00 0.00 75 1010.3
20260510073805 7 34 3.2 8.0 0.00 0.00 0.00 75 1010.3
20260510073258 7 41 1.6 4.8 0.00 0.00 0.00 76 1009.8
20260510072754 7 42 1.6 3.2 0.00 0.00 0.00 75 1009.8
20260510072248 7 42 0.0 3.2 0.00 0.00 0.00 74 1009.8
20260510071738 7 42 1.6 3.2 0.00 0.00 0.00 74 1009.7
20260510071235 7 42 1.6 3.2 0.00 0.00 0.00 74 1009.7
20260510070729 8 45 0.0 1.6 0.00 0.00 0.00 73 1009.7
20260510070224 8 45 1.6 3.2 0.00 0.00 0.00 73 1009.3
20260510065718 7 45 1.6 3.2 0.00 0.00 0.00 74 1009.3
20260510065203 7 45 0.0 3.2 0.00 0.00 0.00 73 1009.3
20260510065146 8 45 0.0 0.0 0.00 0.00 0.00 73 1009.3
20260510064420 8 45 0.0 0.0 0.00 0.00 0.00 73 1009.3
20260510063653 8 45 0.0 0.0 0.00 0.00 0.00 72 1009.3
20260510063148 8 45 0.0 0.0 0.00 0.00 0.00 72 1009.2
20260510063124 8 45 0.0 0.0 0.00 0.00 0.00 72 1009.2
20260510062400 8 45 0.0 0.0 0.00 0.00 0.00 72 1009.2
20260510061630 8 45 0.0 1.6 0.00 0.00 0.00 71 1009.2
20260510061124 8 45 0.0 1.6 0.00 0.00 0.00 71 1009.2
20260510060617 8 45 0.0 0.0 0.00 0.00 0.00 71 1009.2
20260510060112 8 45 0.0 0.0 0.00 0.00 0.00 71 1009.0
20260510055605 8 45 0.0 0.0 0.00 0.00 0.00 71 1009.0
20260510055059 8 45 0.0 0.0 0.00 0.00 0.00 70 1009.0
20260510054554 8 45 0.0 1.6 0.00 0.00 0.00 70 1008.7
20260510054307 8 45 0.0 1.6 0.00 0.00 0.00 70 1008.7
20260510053541 8 45 0.0 0.0 0.00 0.00 0.00 70 1008.7
20260510053034 8 45 0.0 0.0 0.00 0.00 0.00 70 1008.5
20260510052523 8 45 0.0 0.0 0.00 0.00 0.00 70 1008.5
20260510052022 8 45 0.0 0.0 0.00 0.00 0.00 70 1008.5
20260510051518 9 45 0.0 0.0 0.00 0.00 0.00 70 1008.4
20260510051010 9 45 0.0 0.0 0.00 0.00 0.00 70 1008.4
20260510050508 9 45 0.0 0.0 0.00 0.00 0.00 70 1008.4
20260510050004 9 45 0.0 0.0 0.00 0.00 0.00 69 1008.2
20260510045455 9 45 0.0 0.0 0.00 0.00 0.00 69 1008.2
20260510044942 10 45 0.0 0.0 0.00 0.00 0.00 68 1007.9
20260510044710 10 45 0.0 0.0 0.00 0.00 0.00 68 1007.9
20260510043936 10 45 0.0 0.0 0.00 0.00 0.00 68 1007.9
20260510043658 10 45 0.0 0.0 0.00 0.00 0.00 67 1007.7
20260510042926 10 45 0.0 0.0 0.00 0.00 0.00 67 1007.7
20260510042419 10 45 0.0 0.0 0.00 0.00 0.00 67 1007.7
20260510041913 10 45 0.0 0.0 0.00 0.00 0.00 66 1007.6
20260510041401 10 45 0.0 0.0 0.00 0.00 0.00 65 1007.6
20260510040901 10 45 0.0 0.0 0.00 0.00 0.00 65 1007.6
20260510040616 11 45 1.6 4.8 0.00 0.00 0.00 64 1007.2
20260510035850 11 45 1.6 4.8 0.00 0.00 0.00 64 1007.2
20260510035342 11 43 1.6 4.8 0.00 0.00 0.00 64 1007.2
20260510034831 11 43 1.6 4.8 0.00 0.00 0.00 64 1007.1
20260510034318 11 46 1.6 4.8 0.00 0.00 0.00 64 1007.1
20260510033806 11 46 1.6 4.8 0.00 0.00 0.00 63 1007.1
20260510033255 11 46 1.6 3.2 0.00 0.00 0.00 63 1007.0
20260510032743 11 46 1.6 4.8 0.00 0.00 0.00 62 1007.0
20260510032230 11 46 1.6 4.8 0.00 0.00 0.00 61 1007.0
20260510031718 11 43 1.6 4.8 0.00 0.00 0.00 61 1007.0
20260510031244 12 46 3.2 6.4 0.00 0.00 0.00 60 1007.0
20260510030407 12 54 1.6 8.0 0.00 0.00 0.00 59 1006.7
20260510025638 12 30 3.2 6.4 0.00 0.00 0.00 58 1006.7
20260510025353 12 47 3.2 8.0 0.00 0.00 0.00 58 1006.7
20260510024623 12 50 3.2 8.0 0.00 0.00 0.00 57 1006.6
20260510024121 12 58 3.2 6.4 0.00 0.00 0.00 56 1006.6
20260510023614 12 67 4.8 11.3 0.00 0.00 0.00 56 1006.6
20260510023108 13 51 4.8 11.3 0.00 0.00 0.00 55 1006.3
20260510022820 13 58 4.8 12.9 0.00 0.00 0.00 55 1006.3
20260510022315 13 48 4.8 12.9 0.00 0.00 0.00 55 1006.3
20260510021551 13 44 6.4 16.1 0.00 0.00 0.00 54 1005.9
20260510021307 13 51 6.4 16.1 0.00 0.00 0.00 54 1005.9
20260510020538 13 19 8.0 16.1 0.00 0.00 0.00 54 1005.9
20260510020032 13 44 8.0 16.1 0.00 0.00 0.00 53 1005.5
20260510015745 14 57 6.4 16.1 0.00 0.00 0.00 53 1005.5
20260510015011 14 60 4.8 16.1 0.00 0.00 0.00 53 1005.5
20260510014511 14 62 6.4 20.9 0.00 0.00 0.00 51 1005.2
20260510014005 15 38 8.0 20.9 0.00 0.00 0.00 50 1005.2
20260510013459 15 46 8.0 20.9 0.00 0.00 0.00 50 1004.5
20260510012953 16 60 6.4 20.9 0.00 0.00 0.00 49 1004.5
20260510012447 17 69 6.4 17.7 0.00 0.00 0.00 48 1004.5
20260510012205 18 46 4.8 17.7 0.00 0.00 0.00 47 1003.8
20260510011431 18 242 3.2 11.3 0.00 0.00 0.00 51 1003.8
20260510010929 18 246 4.8 14.5 0.00 0.00 0.00 51 1003.8
20260510010423 19 304 6.4 16.1 0.00 0.00 0.00 50 1003.4
20260510005915 19 274 6.4 16.1 0.00 0.00 0.00 50 1003.4
20260510005629 19 238 6.4 11.3 0.00 0.00 0.00 49 1003.4
20260510005125 19 244 6.4 14.5 0.00 0.00 0.00 49 1003.3
20260510004358 20 252 8.0 17.7 0.00 0.00 0.00 48 1003.3
20260510003855 20 244 8.0 17.7 0.00 0.00 0.00 47 1003.3
20260510003354 20 258 6.4 19.3 0.00 0.00 0.00 47 1003.0
20260510002856 20 251 8.0 19.3 0.00 0.00 0.00 47 1003.0
20260510002613 20 264 8.0 19.3 0.00 0.00 0.00 47 1003.0
20260510001855 20 286 6.4 19.3 0.00 0.00 0.00 47 1002.9
20260510001840 20 213 6.4 17.7 0.00 0.00 0.00 47 1002.9
20260510000855 20 246 8.0 17.7 0.00 0.00 0.00 46 1002.9
20260510000356 20 235 11.3 24.1 0.00 0.00 0.00 45 1002.7
20260510000348 20 232 11.3 27.4 0.00 0.00 0.00 45 1002.7
20260509235618 21 231 11.3 27.4 0.00 0.00 0.00 44 1002.7
20260509234855 21 220 11.3 25.7 0.00 0.00 0.00 44 1002.5
20260509234354 21 275 9.7 25.7 0.00 0.00 0.00 44 1002.5
20260509233855 21 257 11.3 25.7 0.00 0.00 0.00 44 1002.5
20260509233355 21 254 12.9 25.7 0.00 0.00 0.00 43 1002.4
20260509232856 21 284 12.9 25.7 0.00 0.00 0.00 43 1002.4
20260509232350 21 263 11.3 25.7 0.00 0.00 0.00 42 1002.4
20260509232100 21 252 9.7 27.4 0.00 0.00 0.00 42 1002.3
20260509231558 21 218 11.3 27.4 0.00 0.00 0.00 42 1002.3
20260509230838 21 249 11.3 25.7 0.00 0.00 0.00 42 1002.3
20260509230339 21 256 11.3 25.7 0.00 0.00 0.00 41 1002.0
20260509225838 21 198 11.3 25.7 0.00 0.00 0.00 41 1002.0
20260509225338 22 273 11.3 24.1 0.00 0.00 0.00 40 1002.0
20260509224838 22 236 11.3 24.1 0.00 0.00 0.00 40 1001.8
20260509224606 22 244 9.7 25.7 0.00 0.00 0.00 40 1001.8
20260509223838 22 263 11.3 25.7 0.00 0.00 0.00 40 1001.8
20260509223602 21 274 12.9 24.1 0.00 0.00 0.00 40 1001.8
20260509223044 21 316 12.9 24.1 0.00 0.00 0.00 40 1001.8
20260509222322 21 273 12.9 32.2 0.00 0.00 0.00 40 1001.8
20260509221816 21 235 12.9 32.2 0.00 0.00 0.00 40 1001.6
20260509221310 21 232 14.5 30.6 0.00 0.00 0.00 39 1001.6
20260509221029 21 220 14.5 30.6 0.00 0.00 0.00 39 1001.6
20260509220254 21 228 12.9 30.6 0.00 0.00 0.00 39 1001.3
20260509215753 21 308 14.5 30.6 0.00 0.00 0.00 39 1001.3
20260509215247 22 290 14.5 30.6 0.00 0.00 0.00 38 1001.3
20260509214740 22 313 11.3 29.0 0.00 0.00 0.00 38 1001.2
20260509214458 22 289 12.9 25.7 0.00 0.00 0.00 39 1001.2
20260509213948 22 285 12.9 32.2 0.00 0.00 0.00 39 1001.2
20260509213443 22 237 9.7 32.2 0.00 0.00 0.00 38 1001.1
20260509212713 22 232 8.0 20.9 0.00 0.00 0.00 37 1001.1
20260509212210 22 292 8.0 20.9 0.00 0.00 0.00 37 1001.1
20260509211704 22 230 9.7 25.7 0.00 0.00 0.00 36 1001.1
20260509211154 22 209 11.3 25.7 0.00 0.00 0.00 36 1001.1
20260509210649 22 229 9.7 22.5 0.00 0.00 0.00 36 1001.1
20260509210409 22 254 11.3 22.5 0.00 0.00 0.00 37 1000.9
20260509205632 22 244 11.3 27.4 0.00 0.00 0.00 38 1000.9
20260509205130 22 266 11.3 27.4 0.00 0.00 0.00 37 1000.9
20260509204624 22 309 9.7 24.1 0.00 0.00 0.00 37 1001.0
20260509204117 22 273 9.7 29.0 0.00 0.00 0.00 38 1001.0
20260509203833 22 223 8.0 29.0 0.00 0.00 0.00 36 1001.0
20260509203107 22 260 6.4 12.9 0.00 0.00 0.00 36 1000.9
20260509202601 22 210 6.4 14.5 0.00 0.00 0.00 36 1000.9
20260509202050 22 273 9.7 20.9 0.00 0.00 0.00 35 1000.9
20260509201548 22 309 11.3 30.6 0.00 0.00 0.00 34 1001.0
20260509201048 22 241 11.3 30.6 0.00 0.00 0.00 33 1001.0
20260509200547 22 306 9.7 24.1 0.00 0.00 0.00 33 1001.0
20260509200052 22 277 8.0 22.5 0.00 0.00 0.00 34 1000.8
20260509195546 22 304 8.0 22.5 0.00 0.00 0.00 33 1000.8
20260509195045 23 275 9.7 25.7 0.00 0.00 0.00 34 1000.8
20260509194546 23 235 11.3 25.7 0.00 0.00 0.00 32 1000.8
20260509194045 23 284 8.0 25.7 0.00 0.00 0.00 34 1000.8
20260509193542 23 227 8.0 20.9 0.00 0.00 0.00 34 1000.8
20260509193305 23 290 8.0 17.7 0.00 0.00 0.00 34 1000.7
20260509192542 23 239 8.0 16.1 0.00 0.00 0.00 35 1000.7
20260509192040 23 240 8.0 16.1 0.00 0.00 0.00 35 1000.7
20260509191540 22 284 9.7 19.3 0.00 0.00 0.00 38 1001.1
20260509191040 22 257 8.0 25.7 0.00 0.00 0.00 40 1001.1
20260509190542 22 251 8.0 25.7 0.00 0.00 0.00 41 1001.1
20260509190042 22 205 11.3 27.4 0.00 0.00 0.00 42 1000.9
20260509185539 22 223 12.9 29.0 0.00 0.00 0.00 41 1000.9
20260509185307 23 249 12.9 30.6 0.00 0.00 0.00 41 1000.9
20260509184539 22 271 11.3 30.6 0.00 0.00 0.00 41 1000.8
20260509184039 22 234 11.3 29.0 0.00 0.00 0.00 42 1000.8
20260509183800 22 246 9.7 25.7 0.00 0.00 0.00 42 1000.8
20260509183039 22 257 11.3 25.7 0.00 0.00 0.00 43 1000.7
20260509182542 22 258 12.9 32.2 0.00 0.00 0.00 44 1000.7
20260509182043 22 265 11.3 32.2 0.00 0.00 0.00 45 1000.7
20260509181542 21 235 9.7 22.5 0.00 0.00 0.00 46 1000.8
20260509181040 21 294 8.0 17.7 0.00 0.00 0.00 48 1000.8
20260509180534 21 242 11.3 25.7 0.00 0.00 0.00 48 1000.8
20260509180028 21 227 12.9 30.6 0.00 0.00 0.00 49 1001.2
20260509175743 21 236 12.9 30.6 0.00 0.00 0.00 48 1001.2
20260509175015 21 223 11.3 22.5 0.00 0.00 0.00 49 1001.2
20260509174509 21 211 9.7 22.5 0.00 0.00 0.00 50 1001.2
20260509174004 21 218 11.3 27.4 0.00 0.00 0.00 51 1001.2
20260509173457 21 223 12.9 27.4 0.00 0.00 0.00 50 1001.0
20260509172958 21 227 11.3 27.4 0.00 0.00 0.00 49 1001.0
20260509172450 21 303 9.7 24.1 0.00 0.00 0.00 50 1001.0
20260509171938 20 225 9.7 24.1 0.00 0.00 0.00 52 1001.2
20260509171702 20 267 11.3 22.5 0.00 0.00 0.00 55 1001.2
20260509170926 20 219 11.3 22.5 0.00 0.00 0.00 54 1001.2
20260509170644 20 258 9.7 22.5 0.00 0.00 0.00 55 1001.2
20260509165910 20 265 11.3 29.0 0.00 0.00 0.00 58 1001.2
20260509165408 19 208 9.7 29.0 0.00 0.00 0.00 62 1001.2
20260509165123 19 238 9.7 22.5 0.00 0.00 0.00 64 1001.2
20260509164355 19 211 11.3 22.5 0.00 0.00 0.00 64 1001.2
20260509164109 18 253 9.7 20.9 0.00 0.00 0.00 63 1001.2
20260509163340 18 247 9.7 22.5 0.00 0.00 0.00 64 1001.1
20260509162839 18 243 9.7 22.5 0.00 0.00 0.00 63 1001.1
20260509162558 18 239 12.9 24.1 0.00 0.00 0.00 67 1001.1
20260509162054 18 230 11.3 24.1 0.00 0.00 0.00 68 1001.2
20260509161335 18 221 11.3 24.1 0.00 0.00 0.00 68 1001.2
20260509160835 17 222 11.3 24.1 0.00 0.00 0.00 66 1001.2
20260509160336 17 225 11.3 27.4 0.00 0.00 0.00 70 1001.5
20260509160054 17 245 11.3 27.4 0.00 0.00 0.00 69 1001.5
20260509155335 17 233 11.3 25.7 0.00 0.00 0.00 70 1001.5
20260509154836 17 230 9.7 22.5 0.00 0.00 0.00 70 1001.5
20260509154334 17 240 9.7 25.7 0.00 0.00 0.00 72 1001.5
20260509153838 17 252 11.3 25.7 0.00 0.00 0.00 72 1001.5
20260509153334 16 227 9.7 25.7 0.00 0.00 0.00 72 1001.6
20260509152835 16 235 9.7 20.9 0.00 0.00 0.00 72 1001.6
20260509152831 16 294 9.7 22.5 0.00 0.00 0.00 72 1001.6
20260509151835 16 234 11.3 22.5 0.00 0.00 0.00 74 1001.3
20260509151555 16 190 9.7 20.9 0.00 0.00 0.00 75 1001.3
20260509150836 16 263 9.7 19.3 0.00 0.00 0.00 76 1001.3
20260509150329 15 215 9.7 19.3 0.00 0.00 0.00 77 1001.3
20260509150041 15 192 8.0 17.7 0.00 0.00 0.00 78 1001.3
20260509145319 15 218 9.7 22.5 0.00 0.00 0.00 79 1001.3
20260509144819 14 229 11.3 22.5 0.00 0.00 0.00 79 1001.3
20260509144538 14 243 11.3 22.5 0.00 0.00 0.00 78 1001.3
20260509143819 14 227 11.3 24.1 0.00 0.00 0.00 79 1001.3
20260509143536 14 241 11.3 24.1 0.00 0.00 0.00 79 1001.4
20260509142818 14 263 11.3 29.0 0.00 0.00 0.00 78 1001.4
20260509142539 14 229 9.7 29.0 0.00 0.00 0.00 79 1001.4
20260509141818 14 241 9.7 20.9 0.00 0.00 0.00 79 1001.2
20260509141313 14 245 11.3 22.5 0.00 0.00 0.00 80 1001.2
20260509140804 13 221 11.3 22.5 0.00 0.00 0.00 82 1001.2
20260509140253 13 232 11.3 22.5 0.00 0.00 0.00 82 1001.2
20260509135752 13 252 11.3 24.1 0.00 0.00 0.00 84 1001.2
20260509135246 13 241 11.3 24.1 0.00 0.00 0.00 85 1001.2
20260509134741 12 223 11.3 22.5 0.00 0.00 0.00 86 1001.3
20260509134234 12 206 11.3 22.5 0.00 0.00 0.00 87 1001.3
20260509133724 12 221 11.3 20.9 0.00 0.00 0.00 89 1001.3
20260509133224 12 224 11.3 20.9 0.00 0.00 0.00 90 1001.4
20260509132716 11 231 11.3 22.5 0.00 0.00 0.00 91 1001.4
20260509132210 11 218 9.7 22.5 0.00 0.00 0.00 91 1001.4
20260509131704 11 225 9.7 22.5 0.00 0.00 0.00 92 1001.3
20260509131158 11 240 9.7 24.1 0.00 0.00 0.00 92 1001.3
20260509130652 11 231 8.0 24.1 0.00 0.00 0.00 93 1001.3
20260509130147 10 233 9.7 22.5 0.00 0.00 0.00 93 1001.3
20260509125641 10 252 11.3 22.5 0.00 0.00 0.00 92 1001.3
20260509125134 10 217 11.3 19.3 0.00 0.00 0.00 92 1001.3
20260509124629 10 246 12.9 20.9 0.00 0.00 0.00 93 1001.5
20260509124342 10 223 11.3 20.9 0.00 0.00 0.00 92 1001.5
20260509123611 10 242 9.7 19.3 0.00 0.00 0.00 92 1001.5
20260509123110 10 225 9.7 17.7 0.00 0.00 0.00 92 1001.6
20260509122605 10 215 9.7 19.3 0.00 0.00 0.00 92 1001.6
20260509122057 10 242 9.7 19.3 0.00 0.00 0.00 92 1001.6
20260509121817 10 225 8.0 17.7 0.00 0.00 0.00 92 1001.3
20260509121532 10 215 6.4 17.7 0.00 0.00 0.00 92 1001.3
20260509120540 10 231 8.0 17.7 0.00 0.00 0.00 92 1001.3
20260509120030 10 257 9.7 17.7 0.00 0.00 0.00 92 1000.7
20260509115748 10 249 8.0 19.3 0.00 0.00 0.00 92 1000.7
20260509115244 10 199 8.0 19.3 0.00 0.00 0.00 92 1000.7
20260509114745 10 236 8.0 16.1 0.00 0.00 0.00 92 1000.6
20260509114504 10 221 6.4 14.5 0.00 0.00 0.00 92 1000.6
20260509113501 10 186 6.4 14.5 0.00 0.00 0.00 92 1000.6
20260509113224 10 211 8.0 17.7 0.00 0.00 0.00 92 1000.6
20260509112453 10 209 8.0 17.7 0.00 0.00 0.00 92 1000.6
20260509112205 10 210 8.0 17.7 0.00 0.00 0.00 92 1000.7
20260509111442 10 164 8.0 17.7 0.00 0.00 0.00 92 1000.7
20260509110942 10 248 8.0 20.9 0.00 0.00 0.00 92 1000.7
20260509110442 10 190 6.4 20.9 0.00 0.00 0.00 92 1000.8
20260509110435 10 202 6.4 14.5 0.00 0.00 0.00 92 1000.8
20260509105442 10 207 8.0 16.1 0.00 0.00 0.00 92 1000.8
20260509104943 10 228 8.0 16.1 0.00 0.00 0.00 92 1000.7
20260509104442 10 213 6.4 16.1 0.00 0.00 0.00 92 1000.7
20260509103942 10 211 6.4 16.1 0.00 0.00 0.00 92 1000.7
20260509103442 9 190 6.4 12.9 0.00 0.00 0.00 92 1000.9
20260509102942 9 221 6.4 12.9 0.00 0.00 0.00 92 1000.9
20260509102444 9 221 6.4 12.9 0.00 0.00 0.00 91 1000.9
20260509101946 9 203 6.4 11.3 0.00 0.00 0.00 91 1001.1
20260509101924 9 201 6.4 12.9 0.00 0.00 0.00 91 1001.1
20260509100927 9 217 6.4 12.9 0.00 0.00 0.00 91 1001.1
20260509100416 9 207 6.4 14.5 0.00 0.00 0.00 91 1001.2
20260509095904 9 192 6.4 14.5 0.00 0.00 0.00 91 1001.2
20260509095351 9 167 6.4 12.9 0.00 0.00 0.00 91 1001.2
20260509094838 9 192 6.4 17.7 0.00 0.00 0.00 91 1001.2
20260509094331 9 191 6.4 17.7 0.00 0.00 0.00 91 1001.2
20260509093825 9 209 4.8 11.3 0.00 0.00 0.00 91 1001.2
20260509093318 9 219 4.8 12.9 0.00 0.00 0.00 91 1001.5
20260509092812 9 219 4.8 12.9 0.00 0.00 0.00 91 1001.5
20260509092305 9 190 6.4 12.9 0.00 0.00 0.00 91 1001.5
20260509091800 9 210 4.8 11.3 0.00 0.00 0.00 91 1001.3
20260509091254 9 175 3.2 9.7 0.00 0.00 0.00 91 1001.3
20260509090749 9 215 4.8 8.0 0.00 0.00 0.00 90 1001.3